Theta_e
303 303 303 299 298 298 294 293 292 296 300 305 309 310 312 313 318 321 326 333 334 334 336 341 344 346 347 350 352 353 352 356
301 302 302 299 301 295 295 289 287 293 294 298 304 306 310 314 316 322 329 332 339 335 336 339 343 346 347 348 351 351 351 354
299 298 296 299 298 298 297 295 291 289 294 304 305 307 309 313 317 322 328 335 340 338 336 338 341 343 345 346 350 351 353 354
294 300 299 299 298 298 295 292 295 294 294 307 307 307 311 313 319 325 329 336 340 341 336 336 340 342 344 347 349 352 354 355
291 296 300 298 299 299 297 296 293 291 294 306 306 306 312 315 320 325 329 336 340 339 335 337 340 344 345 347 348 350 354 352
288 292 297 294 296 298 297 292 293 294 296 300 303 305 314 317 323 325 329 335 338 340 338 338 343 345 348 347 347 350 353 350
295 296 295 294 294 294 293 295 292 294 294 298 301 309 317 323 325 325 327 331 333 338 339 335 343 346 347 348 349 350 352 351
292 295 296 294 295 296 296 296 296 296 295 302 307 319 320 322 323 323 326 328 328 331 339 340 339 343 343 347 351 352 351 349
289 293 293 290 294 296 297 298 297 293 299 309 312 315 318 322 324 324 327 327 327 329 333 341 343 344 345 345 348 350 348 351
291 293 285 295 300 299 298 299 302 302 304 309 313 318 320 325 325 325 328 328 329 331 333 336 341 345 346 348 346 346 349 349
290 289 293 294 298 300 299 299 305 307 310 313 316 316 314 325 323 319 325 330 330 333 334 336 339 345 348 348 348 348 346 349
291 285 283 294 303 307 306 295 305 306 306 308 313 307 311 321 319 316 315 327 331 332 334 333 335 344 346 348 347 346 348 352
291 288 292 299 302 308 292 294 305 307 308 305 306 313 317 318 317 319 315 318 328 331 331 333 335 336 336 335 334 335 339 340
292 288 286 303 303 296 303 306 306 307 308 307 310 312 317 316 316 318 316 318 322 324 323 326 334 332 327 326 330 329 336 335
296 295 304 305 304 307 308 305 307 308 309 311 312 312 317 318 315 317 317 321 325 322 318 318 321 332 328 331 330 330 333 335
298 302 304 305 307 308 308 307 310 312 313 314 313 315 316 315 316 315 314 314 317 316 314 312 316 318 321 325 336 334 333 334
300 304 305 305 307 308 308 311 312 314 313 315 316 315 314 313 314 311 310 310 312 310 312 311 314 315 318 324 329 327 332 334
298 306 303 305 309 309 307 309 310 311 313 315 314 312 312 311 312 310 308 308 308 308 308 308 309 309 310 318 326 326 325 325
305 309 309 309 309 310 309 309 311 312 312 310 310 311 310 309 308 307 306 304 303 305 307 306 308 308 311 311 315 316 317 321
Wind_Speed
1 4 3 2 2 3 6 0 5 5 5 9 2 11 18 19 18 18 18 15 20 24 25 23 23 24 24 21 21 20 21 17
4 1 3 3 2 4 3 4 6 4 6 7 9 17 20 23 24 22 20 17 19 21 23 23 24 23 23 24 22 22 22 17
3 1 5 2 4 2 2 4 5 5 5 2 10 14 20 21 21 21 23 21 21 17 21 22 22 22 23 23 22 20 19 18
3 4 4 3 4 3 3 4 3 5 8 11 11 17 17 22 22 23 22 21 21 17 18 20 22 22 23 21 20 20 19 18
3 4 4 3 3 3 1 2 10 8 5 6 22 25 27 24 23 20 23 21 19 16 15 18 19 19 20 20 21 20 18 20
7 3 1 7 7 5 7 7 11 17 25 19 17 18 21 22 23 21 21 18 16 15 13 14 16 17 16 16 18 18 19 20
10 10 11 13 13 13 16 18 16 17 26 21 19 16 17 18 18 19 19 18 15 14 12 10 13 13 15 15 16 15 16 17
6 10 13 16 13 14 17 19 23 23 30 23 14 10 14 15 16 17 16 14 14 15 13 8 12 13 13 16 15 15 15 16
5 2 5 11 20 20 17 15 15 18 19 13 12 11 11 16 15 17 16 14 11 12 12 11 7 11 16 12 12 13 13 14
4 4 9 5 4 9 15 18 16 17 19 18 15 12 13 15 17 16 16 14 11 9 10 8 7 7 9 12 11 12 13 12
5 6 14 16 11 4 5 11 10 14 18 18 15 15 14 5 9 13 18 15 11 9 9 7 7 5 7 10 11 10 9 11
3 7 9 5 3 3 3 11 10 16 16 17 19 12 9 7 12 15 15 15 13 10 8 6 4 7 10 9 9 7 5 10
7 7 9 7 5 3 10 5 20 15 17 14 12 12 19 17 18 14 11 18 13 7 7 6 6 3 9 10 9 8 10 9
1 5 8 2 7 7 13 20 15 17 19 20 15 15 18 16 17 14 15 15 11 5 2 3 1 5 8 8 6 2 10 9
6 7 12 11 15 15 13 17 17 15 17 17 18 15 16 13 11 12 16 16 4 6 7 9 9 4 6 4 5 3 6 14
4 8 13 18 16 12 11 13 18 16 18 18 18 14 10 6 6 10 16 15 10 11 12 14 10 7 9 2 6 5 5 5
9 14 11 11 10 9 12 15 16 16 17 17 13 5 4 4 7 12 14 15 14 12 10 11 7 7 8 6 7 6 6 2
7 8 8 13 12 14 13 11 13 14 7 11 6 6 7 8 8 15 9 11 11 12 13 13 12 13 13 12 9 9 10 8
6 3 9 15 13 8 9 10 12 10 10 10 11 8 12 8 9 13 9 8 13 15 10 10 10 11 12 12 11 11 9 8
Wind_Direction
8 347 283 85 197 1 281 187 266 249 266 267 2 18 4 359 359 355 340 311 246 229 215 204 200 199 196 191 196 196 200 202
330 198 93 329 12 216 187 254 245 226 268 249 10 358 351 350 346 342 334 318 309 237 219 209 204 198 199 198 194 195 199 200
260 28 309 209 170 135 297 280 277 287 242 139 31 356 338 334 333 333 332 328 319 265 221 212 206 201 202 202 197 198 196 198
297 330 292 242 92 60 267 177 253 293 261 303 340 339 337 330 330 330 328 328 326 289 222 207 207 203 201 200 200 195 194 196
223 152 176 211 133 84 69 256 247 264 244 334 335 335 333 328 328 328 327 330 332 303 220 207 204 203 202 198 202 198 194 196
257 326 21 248 247 245 262 256 264 249 280 292 300 316 315 317 322 326 323 325 329 320 237 204 203 202 198 208 210 201 197 200
250 265 267 266 261 261 249 250 258 281 282 288 299 302 303 309 314 322 324 324 327 319 296 220 198 202 203 204 206 207 206 205
262 248 254 260 258 244 249 255 258 266 271 286 292 292 303 309 314 315 314 319 327 322 298 244 199 198 201 208 199 195 202 209
259 339 271 257 239 248 261 261 257 267 284 310 286 309 304 304 309 310 309 316 315 306 297 297 235 201 203 193 200 203 194 205
282 279 247 40 317 270 274 273 277 284 287 289 288 298 300 279 298 305 307 305 314 304 304 302 275 245 217 192 189 197 199 200
271 262 299 285 277 284 270 289 337 332 335 327 302 298 291 350 348 333 320 295 285 279 306 297 278 249 227 198 196 192 195 194
245 276 278 24 194 304 257 265 3 339 332 322 326 300 308 333 323 318 348 309 286 274 284 302 312 229 220 198 187 163 170 188
265 269 274 284 328 298 251 355 336 330 316 321 303 303 309 309 305 301 316 339 299 267 252 292 343 84 121 128 128 126 118 114
230 274 282 53 302 273 330 316 317 306 297 300 294 286 294 302 305 312 317 296 287 241 87 347 9 103 100 96 106 97 95 94
231 256 296 296 282 291 303 303 305 303 290 295 293 292 295 313 330 337 4 325 190 188 108 46 7 48 84 94 126 139 118 129
270 264 301 306 310 306 306 294 297 291 290 290 284 295 286 329 357 23 23 350 319 96 57 60 11 9 55 49 162 159 154 163
261 280 289 259 309 325 310 302 298 301 299 285 280 114 105 31 37 57 31 342 279 65 63 65 40 28 39 34 90 82 90 107
284 297 268 285 307 320 308 313 317 304 358 46 52 140 84 48 44 72 35 329 357 34 50 33 37 29 26 33 65 81 76 56
261 315 281 294 305 331 3 359 12 39 36 52 54 47 72 75 54 55 43 9 7 24 31 32 35 28 14 21 35 53 64 67